,,PA_Meas_PMT16A,,PR_Meas_QMR101_102,,RH_Meas_QMH101,,SR_Meas_QMS101,,TA_Meas_QMH101,,GenWind,,GenWind,
time,status,PA,status,PR,status,RH,status,SR,status,TA,status,DirAvg,status,SpdAvg,
2013-07-17, 08:21:04,VALID,917.641,VALID,0,VALID,90.955,VALID,137.954,VALID,20.795,VALID,119,VALID,0,
2013-07-17, 08:22:04,VALID,917.727,VALID,0,VALID,90.4595,VALID,142.037,VALID,20.795,VALID,149,VALID,0,
2013-07-17, 08:23:04,VALID,917.669,VALID,0,VALID,90.1088,VALID,144.401,VALID,20.7755,VALID,126,VALID,0,
2013-07-17, 08:24:04,VALID,917.854,VALID,0,VALID,90.4442,VALID,143.649,VALID,20.756,VALID,155,VALID,0,
2013-07-17, 08:25:04,VALID,917.791,VALID,0,VALID,90.4518,VALID,138.921,VALID,20.7365,VALID,140,VALID,0,
2013-07-17, 08:40:04,VALID,918.017,VALID,0,VALID,90.0325,VALID,132.26,VALID,21.164,VALID,178,VALID,0,
2013-07-17, 08:41:04,VALID,918.054,VALID,0,VALID,89.2473,VALID,135.913,VALID,21.2437,VALID,178,VALID,0,
2013-07-17, 08:42:04,VALID,918.066,VALID,0,VALID,88.7899,VALID,136.88,VALID,21.2811,VALID,178,VALID,0,
2013-07-17, 08:43:04,VALID,918.022,VALID,0,VALID,89.3998,VALID,136.235,VALID,21.3412,VALID,178,VALID,0,
2013-07-17, 08:44:04,VALID,918.093,VALID,0,VALID,89.6361,VALID,134.731,VALID,21.3591,VALID,178,VALID,0,
2013-07-17, 08:45:04,VALID,918.142,VALID,0,VALID,89.5828,VALID,134.301,VALID,21.3591,VALID,178,VALID,0,
2013-07-17, 08:46:04,VALID,918.283,VALID,0,VALID,88.8509,VALID,134.946,VALID,21.3412,VALID,178,VALID,0,
2013-07-17, 08:47:04,VALID,918.272,VALID,0,VALID,89.3922,VALID,137.202,VALID,21.3006,VALID,178,VALID,0,
2013-07-17, 08:48:04,VALID,918.31,VALID,0,VALID,89.6361,VALID,142.574,VALID,21.3201,VALID,178,VALID,0,
2013-07-17, 08:49:04,VALID,918.238,VALID,0,VALID,89.4303,VALID,149.773,VALID,21.3006,VALID,178,VALID,0,
2013-07-17, 08:50:04,VALID,917.734,VALID,0,VALID,89.3312,VALID,157.079,VALID,21.2811,VALID,178,VALID,0,
2013-07-17, 08:51:04,VALID,918.206,VALID,0,VALID,89.6361,VALID,163.203,VALID,21.2811,VALID,178,VALID,0,
2013-07-17, 08:52:04,VALID,918.348,VALID,0,VALID,88.9958,VALID,167.931,VALID,21.2811,VALID,178,VALID,0,
2013-07-17, 08:53:04,VALID,918.174,VALID,0,VALID,88.6603,VALID,171.046,VALID,21.299,VALID,128,VALID,0,
2013-07-17, 08:54:04,VALID,918.352,VALID,0,VALID,88.1801,VALID,172.658,VALID,21.3786,VALID,175,VALID,0,
2013-07-17, 08:55:04,VALID,918.301,VALID,0,VALID,87.6845,VALID,172.98,VALID,21.4388,VALID,175,VALID,0,
2013-07-17, 08:56:04,VALID,918.447,VALID,0,VALID,87.2271,VALID,173.303,VALID,21.4973,VALID,175,VALID,0,
2013-07-17, 08:57:04,VALID,918.076,VALID,0,VALID,87.715,VALID,174.055,VALID,21.5542,VALID,175,VALID,0,
2013-07-17, 08:58:04,VALID,918.332,VALID,0,VALID,87.2805,VALID,175.129,VALID,21.6144,VALID,175,VALID,0,
2013-07-17, 08:59:04,VALID,918.227,VALID,0,VALID,87.2729,VALID,176.418,VALID,21.6144,VALID,187,VALID,0,
2013-07-17, 09:00:04,VALID,918.321,VALID,0,VALID,87.6693,VALID,178.137,VALID,21.6924,VALID,186,VALID,0,
2013-07-17, 09:01:04,VALID,918.206,VALID,0,VALID,87.433,VALID,179.534,VALID,21.751,VALID,163,VALID,0,
2013-07-17, 09:02:04,VALID,918.268,VALID,0,VALID,87.4101,VALID,181.468,VALID,21.79,VALID,174,VALID,0,
2013-07-17, 09:03:04,VALID,918.291,VALID,0,VALID,87.189,VALID,183.402,VALID,21.8095,VALID,153,VALID,0,
2013-07-17, 09:04:04,VALID,918.255,VALID,0,VALID,86.6096,VALID,185.121,VALID,21.8095,VALID,105,VALID,0,
2013-07-17, 09:05:04,VALID,918.12,VALID,0,VALID,86.0684,VALID,187.055,VALID,21.751,VALID,152,VALID,0,
2013-07-17, 09:06:04,VALID,918.442,VALID,0,VALID,86.1522,VALID,190.063,VALID,21.7721,VALID,160,VALID,0,
2013-07-17, 09:07:04,VALID,918.126,VALID,0,VALID,86.6325,VALID,194.361,VALID,21.79,VALID,180,VALID,0,
2013-07-17, 09:08:04,VALID,918.239,VALID,0,VALID,86.0607,VALID,200.7,VALID,21.79,VALID,182,VALID,0,
2013-07-17, 09:09:04,VALID,918.317,VALID,0,VALID,86.3962,VALID,208.543,VALID,21.7298,VALID,121,VALID,0,
2013-07-17, 09:10:04,VALID,918.249,VALID,0,VALID,87.5473,VALID,216.709,VALID,21.7493,VALID,172,VALID,0,
2013-07-17, 09:11:04,VALID,918.212,VALID,0,VALID,86.4343,VALID,225.089,VALID,21.7282,VALID,181,VALID,0,
2013-07-17, 09:12:04,VALID,918.307,VALID,0,VALID,86.5105,VALID,231.965,VALID,21.8079,VALID,188,VALID,0,
2013-07-17, 09:13:04,VALID,918.405,VALID,0,VALID,85.9616,VALID,234.222,VALID,21.7672,VALID,131,VALID,0,
2013-07-17, 09:14:04,VALID,918.446,VALID,0,VALID,86.4953,VALID,233.147,VALID,21.8079,VALID,151,VALID,0,
2013-07-17, 09:15:04,VALID,918.352,VALID,0,VALID,86.9832,VALID,231.536,VALID,21.7883,VALID,160,VALID,0,
2013-07-17, 09:16:04,VALID,918.313,VALID,0,VALID,87.5626,VALID,229.709,VALID,21.8647,VALID,166,VALID,0,
2013-07-17, 09:17:04,VALID,918.257,VALID,0,VALID,86.2894,VALID,228.205,VALID,21.964,VALID,172,VALID,0,
2013-07-17, 09:18:04,VALID,918.253,VALID,0,VALID,86.1141,VALID,228.527,VALID,22.0225,VALID,185,VALID,0,
2013-07-17, 09:19:04,VALID,918.356,VALID,0,VALID,85.8702,VALID,231.858,VALID,22.081,VALID,165,VALID,0,
2013-07-17, 09:20:04,VALID,918.402,VALID,0,VALID,85.1917,VALID,238.949,VALID,22.0403,VALID,172,VALID,0,
2013-07-17, 09:21:04,VALID,918.352,VALID,0,VALID,85.2984,VALID,246.792,VALID,22.0615,VALID,144,VALID,0,
2013-07-17, 09:22:04,VALID,918.362,VALID,0,VALID,85.7863,VALID,252.057,VALID,22.0208,VALID,137,VALID,0,
2013-07-17, 09:23:04,VALID,918.225,VALID,0,VALID,85.9464,VALID,253.561,VALID,22.0615,VALID,166,VALID,0,
2013-07-17, 09:24:04,VALID,918.485,VALID,0,VALID,86.3962,VALID,253.239,VALID,22.1396,VALID,169,VALID,0,
2013-07-17, 09:25:04,VALID,918.436,VALID,0,VALID,86.3123,VALID,250.66,VALID,22.1396,VALID,101,VALID,0,
2013-07-17, 09:26:04,VALID,918.399,VALID,0,VALID,86.3199,VALID,246.47,VALID,22.1803,VALID,135,VALID,0,
2013-07-17, 09:27:04,VALID,918.263,VALID,0,VALID,85.1154,VALID,240.883,VALID,22.2193,VALID,138,VALID,0,
2013-07-17, 09:28:04,VALID,918.113,VALID,0,VALID,84.3074,VALID,236.263,VALID,22.2176,VALID,142,VALID,0,
2013-07-17, 09:29:04,VALID,918.378,VALID,0,VALID,84.8258,VALID,230.569,VALID,22.2388,VALID,160,VALID,0,
2013-07-17, 09:30:04,VALID,918.33,VALID,0,VALID,82.9275,VALID,225.734,VALID,22.1981,VALID,147,VALID,0,
2013-07-17, 09:31:04,VALID,918.321,VALID,0,VALID,84.1778,VALID,219.61,VALID,22.1786,VALID,142,VALID,0,
2013-07-17, 09:32:04,VALID,918.306,VALID,0,VALID,83.6289,VALID,216.064,VALID,22.1981,VALID,180,VALID,0,
2013-07-17, 09:33:04,VALID,918.25,VALID,0,VALID,83.6517,VALID,213.593,VALID,22.2371,VALID,167,VALID,0,
2013-07-17, 09:34:04,VALID,918.303,VALID,0,VALID,83.7966,VALID,207.791,VALID,22.2762,VALID,181,VALID,0,
2013-07-17, 09:35:04,VALID,918.325,VALID,0,VALID,83.4917,VALID,202.956,VALID,22.2567,VALID,165,VALID,0,
2013-07-17, 09:36:04,VALID,918.274,VALID,0,VALID,83.7813,VALID,199.518,VALID,22.2762,VALID,170,VALID,0,
2013-07-17, 09:37:04,VALID,918.21,VALID,0,VALID,83.8728,VALID,196.402,VALID,22.2957,VALID,187,VALID,0,
2013-07-17, 09:38:04,VALID,918.182,VALID,0,VALID,83.3773,VALID,190.171,VALID,22.2957,VALID,187,VALID,0,
2013-07-17, 09:39:04,VALID,918.187,VALID,0,VALID,84.4446,VALID,180.286,VALID,22.3559,VALID,166,VALID,0,
2013-07-17, 09:40:04,VALID,918.258,VALID,0,VALID,83.6212,VALID,168.468,VALID,22.4145,VALID,162,VALID,0,
2013-07-17, 09:41:04,VALID,918.329,VALID,0,VALID,83.3849,VALID,154.93,VALID,22.3364,VALID,143,VALID,0,
2013-07-17, 09:42:04,VALID,918.269,VALID,0,VALID,84.8181,VALID,142.252,VALID,22.2567,VALID,140,VALID,0,
2013-07-17, 09:49:04,VALID,918.344,VALID,0,VALID,85.4661,VALID,134.409,VALID,22.4908,VALID,129,VALID,0,
2013-07-17, 09:50:04,VALID,918.178,VALID,0,VALID,84.6428,VALID,140.64,VALID,22.4713,VALID,163,VALID,0,
2013-07-17, 09:51:04,VALID,918.32,VALID,0,VALID,83.8881,VALID,150.955,VALID,22.3737,VALID,162,VALID,0,
2013-07-17, 09:52:04,VALID,918.311,VALID,0,VALID,84.2616,VALID,166.749,VALID,22.3933,VALID,172,VALID,0,
2013-07-17, 09:53:04,VALID,918.382,VALID,0,VALID,84.3988,VALID,189.849,VALID,22.4323,VALID,171,VALID,0,
2013-07-17, 09:54:04,VALID,918.358,VALID,0,VALID,83.5221,VALID,217.998,VALID,22.4518,VALID,171,VALID,0,
2013-07-17, 09:55:04,VALID,918.207,VALID,0,VALID,83.7585,VALID,252.916,VALID,22.4908,VALID,95,VALID,0,
2013-07-17, 09:56:04,VALID,918.256,VALID,0,VALID,83.7737,VALID,286.223,VALID,22.5494,VALID,144,VALID,0,
2013-07-17, 09:57:04,VALID,918.121,VALID,0,VALID,82.6531,VALID,280.744,VALID,22.5477,VALID,160,VALID,0,
2013-07-17, 09:58:04,VALID,918.157,VALID,0,VALID,83.2477,VALID,265.917,VALID,22.5103,VALID,159,VALID,0,
2013-07-17, 09:59:04,VALID,918.199,VALID,0,VALID,82.8818,VALID,254.85,VALID,22.4713,VALID,168,VALID,0,
2013-07-17, 10:00:04,VALID,918.186,VALID,0,VALID,83.3087,VALID,244.644,VALID,22.5103,VALID,168,VALID,0,
2013-07-17, 10:01:04,VALID,918.206,VALID,0,VALID,83.8347,VALID,245.933,VALID,22.6274,VALID,148,VALID,0,
2013-07-17, 10:02:04,VALID,918.268,VALID,0,VALID,82.7674,VALID,249.049,VALID,22.7055,VALID,146,VALID,0,
2013-07-17, 10:03:04,VALID,918.224,VALID,0,VALID,83.3621,VALID,258.181,VALID,22.7641,VALID,145,VALID,0,
2013-07-17, 10:04:04,VALID,918.244,VALID,0,VALID,83.5145,VALID,257.536,VALID,22.8616,VALID,119,VALID,0,
2013-07-17, 10:05:04,VALID,918.115,VALID,0,VALID,83.019,VALID,256.999,VALID,22.977,VALID,119,VALID,0,
2013-07-17, 10:06:04,VALID,918.24,VALID,0,VALID,81.8298,VALID,249.263,VALID,23.1544,VALID,119,VALID,0,
2013-07-17, 10:07:04,VALID,918.266,VALID,0,VALID,80.427,VALID,235.618,VALID,23.1544,VALID,120,VALID,0,
2013-07-17, 10:08:04,VALID,918.14,VALID,0,VALID,81.1665,VALID,233.362,VALID,23.0959,VALID,120,VALID,0,
2013-07-17, 10:09:04,VALID,918.146,VALID,0,VALID,81.9365,VALID,260.975,VALID,23.0959,VALID,11,VALID,0,
2013-07-17, 10:10:04,VALID,918.129,VALID,0,VALID,80.3584,VALID,274.405,VALID,23.0941,VALID,45,VALID,0,
2013-07-17, 10:11:04,VALID,918.164,VALID,0,VALID,81.0369,VALID,296.645,VALID,23.1544,VALID,46,VALID,0,
2013-07-17, 10:12:04,VALID,918.163,VALID,0,VALID,81.6468,VALID,292.992,VALID,23.252,VALID,46,VALID,0,
2013-07-17, 10:13:04,VALID,918.162,VALID,0,VALID,80.4194,VALID,286.438,VALID,23.3478,VALID,46,VALID,0,
2013-07-17, 10:14:04,VALID,918.189,VALID,0,VALID,78.7346,VALID,281.173,VALID,23.4259,VALID,46,VALID,0,
2013-07-17, 10:15:04,VALID,918.192,VALID,0,VALID,78.6813,VALID,277.628,VALID,23.4454,VALID,46,VALID,0,
2013-07-17, 10:16:04,VALID,918.145,VALID,0,VALID,78.0333,VALID,272.256,VALID,23.5448,VALID,46,VALID,0,
2013-07-17, 10:17:04,VALID,918.149,VALID,0,VALID,78.5136,VALID,269.248,VALID,23.6406,VALID,46,VALID,0,
2013-07-17, 10:18:04,VALID,918.195,VALID,0,VALID,79.4741,VALID,282.57,VALID,23.7773,VALID,46,VALID,0,
2013-07-17, 10:19:04,VALID,918.157,VALID,0,VALID,79.8629,VALID,298.686,VALID,23.8767,VALID,46,VALID,0,
2013-07-17, 10:20:04,VALID,918.184,VALID,0,VALID,79.0243,VALID,308.464,VALID,23.7968,VALID,46,VALID,0,
2013-07-17, 10:21:04,VALID,918.146,VALID,0,VALID,80.4652,VALID,303.629,VALID,23.7968,VALID,46,VALID,0,
2013-07-17, 10:22:04,VALID,918.17,VALID,0,VALID,79.2454,VALID,305.563,VALID,23.8163,VALID,46,VALID,0,
2013-07-17, 10:23:04,VALID,918.138,VALID,0,VALID,79.2912,VALID,317.703,VALID,23.7773,VALID,46,VALID,0,
2013-07-17, 10:24:04,VALID,918.112,VALID,0,VALID,80.1907,VALID,337.043,VALID,23.7382,VALID,46,VALID,0,
2013-07-17, 10:25:04,VALID,918.112,VALID,0,VALID,79.9925,VALID,359.283,VALID,23.7773,VALID,46,VALID,0,
2013-07-17, 10:26:04,VALID,918.078,VALID,0,VALID,80.3661,VALID,378.085,VALID,23.8358,VALID,46,VALID,0,
2013-07-17, 10:27:04,VALID,918.047,VALID,0,VALID,80.7472,VALID,397.747,VALID,23.992,VALID,46,VALID,0,
2013-07-17, 10:28:04,VALID,918.043,VALID,0,VALID,79.7486,VALID,433.847,VALID,24.1073,VALID,46,VALID,0,
2013-07-17, 10:29:04,VALID,918.028,VALID,0,VALID,80.2669,VALID,517.222,VALID,24.244,VALID,46,VALID,0,
2013-07-17, 10:30:04,VALID,917.999,VALID,0,VALID,78.971,VALID,480.155,VALID,24.2049,VALID,46,VALID,0,
2013-07-17, 10:31:04,VALID,918.039,VALID,0,VALID,79.6342,VALID,545.049,VALID,24.3026,VALID,46,VALID,0,
2013-07-17, 10:32:04,VALID,918.057,VALID,0,VALID,76.783,VALID,449.104,VALID,24.4392,VALID,46,VALID,0,
2013-07-17, 10:33:04,VALID,918.046,VALID,0,VALID,74.7857,VALID,464.361,VALID,24.4978,VALID,46,VALID,0,
2013-07-17, 10:34:04,VALID,918.069,VALID,0,VALID,77.4692,VALID,481.229,VALID,24.5759,VALID,46,VALID,0,
2013-07-17, 10:35:04,VALID,918.052,VALID,0,VALID,76.6916,VALID,474.997,VALID,24.734,VALID,46,VALID,0,
2013-07-17, 10:36:04,VALID,918.051,VALID,0,VALID,77.0194,VALID,466.939,VALID,24.6735,VALID,46,VALID,0,
2013-07-17, 10:37:04,VALID,918.036,VALID,0,VALID,77.6369,VALID,436.426,VALID,24.6363,VALID,358,VALID,0,
2013-07-17, 10:38:04,VALID,918.052,VALID,0,VALID,76.44,VALID,439.219,VALID,24.5973,VALID,26,VALID,0,
2013-07-17, 10:39:04,VALID,918.047,VALID,0,VALID,76.3104,VALID,491.758,VALID,24.4606,VALID,3,VALID,0,
2013-07-17, 10:40:04,VALID,918.016,VALID,0,VALID,76.3409,VALID,406.128,VALID,24.4002,VALID,333,VALID,0,
2013-07-17, 10:41:04,VALID,918.039,VALID,0,VALID,76.0969,VALID,377.118,VALID,24.244,VALID,296,VALID,0,
2013-07-17, 10:42:04,VALID,918.015,VALID,0,VALID,76.2265,VALID,372.069,VALID,24.1659,VALID,328,VALID,0,
2013-07-17, 10:43:04,VALID,918.001,VALID,0,VALID,75.4413,VALID,347.894,VALID,24.2068,VALID,334,VALID,0,
2013-07-17, 10:44:04,VALID,917.974,VALID,0,VALID,76.0055,VALID,322.431,VALID,24.1659,VALID,332,VALID,0,
2013-07-17, 10:45:04,VALID,917.978,VALID,0,VALID,77.7893,VALID,304.273,VALID,24.1482,VALID,312,VALID,0,
2013-07-17, 10:46:04,VALID,917.927,VALID,0,VALID,77.7893,VALID,282.57,VALID,24.1677,VALID,165,VALID,0,
2013-07-17, 10:47:04,VALID,917.96,VALID,0,VALID,77.0499,VALID,263.768,VALID,24.2068,VALID,286,VALID,0,
2013-07-17, 10:48:04,VALID,917.925,VALID,0,VALID,76.3028,VALID,248.404,VALID,24.2086,VALID,262,VALID,0,
2013-07-17, 10:49:04,VALID,917.905,VALID,0,VALID,74.0462,VALID,240.024,VALID,24.0506,VALID,253,VALID,0,
2013-07-17, 10:50:04,VALID,917.934,VALID,0,VALID,75.1669,VALID,235.189,VALID,23.9743,VALID,253,VALID,0,
2013-07-17, 10:51:04,VALID,917.89,VALID,0,VALID,76.7373,VALID,228.957,VALID,23.8377,VALID,249,VALID,0,
2013-07-17, 10:52:04,VALID,917.949,VALID,0,VALID,77.0651,VALID,229.494,VALID,23.7986,VALID,237,VALID,0,
2013-07-17, 10:53:04,VALID,917.9,VALID,0,VALID,78.2086,VALID,237.23,VALID,23.7596,VALID,240,VALID,0,
2013-07-17, 10:54:04,VALID,917.912,VALID,0,VALID,78.8947,VALID,249.908,VALID,23.7773,VALID,240,VALID,0,
2013-07-17, 10:55:04,VALID,917.915,VALID,0,VALID,79.5732,VALID,262.479,VALID,23.7773,VALID,246,VALID,0,
2013-07-17, 10:56:04,VALID,917.938,VALID,0,VALID,78.5136,VALID,274.512,VALID,23.8163,VALID,270,VALID,0,
2013-07-17, 10:57:04,VALID,917.931,VALID,0,VALID,76.0055,VALID,285.149,VALID,23.7596,VALID,270,VALID,0,
2013-07-17, 10:58:04,VALID,917.924,VALID,0,VALID,76.9584,VALID,297.934,VALID,23.8181,VALID,270,VALID,0,
2013-07-17, 10:59:04,VALID,917.91,VALID,0,VALID,77.0727,VALID,311.364,VALID,23.9353,VALID,270,VALID,0,
2013-07-17, 11:00:04,VALID,917.906,VALID,0,VALID,75.5938,VALID,320.927,VALID,24.0115,VALID,276,VALID,0,
2013-07-17, 11:01:04,VALID,917.898,VALID,0,VALID,75.2965,VALID,331.456,VALID,24.0506,VALID,276,VALID,0,
2013-07-17, 11:02:04,VALID,917.926,VALID,0,VALID,75.7691,VALID,349.721,VALID,24.1092,VALID,276,VALID,0,
2013-07-17, 11:03:04,VALID,917.897,VALID,0,VALID,76.2189,VALID,372.821,VALID,24.2654,VALID,247,VALID,0,
2013-07-17, 11:04:04,VALID,917.894,VALID,0,VALID,74.4884,VALID,404.838,VALID,24.3063,VALID,256,VALID,0,
2013-07-17, 11:05:04,VALID,917.877,VALID,0,VALID,75.6319,VALID,422.244,VALID,24.3844,VALID,255,VALID,0,
2013-07-17, 11:06:04,VALID,917.891,VALID,0,VALID,74.9763,VALID,487.353,VALID,24.3825,VALID,259,VALID,0,
2013-07-17, 11:07:04,VALID,917.875,VALID,0,VALID,75.2507,VALID,544.082,VALID,24.3044,VALID,264,VALID,0,
2013-07-17, 11:08:04,VALID,917.832,VALID,0,VALID,71.5305,VALID,597.158,VALID,24.1873,VALID,248,VALID,0,
2013-07-17, 11:09:04,VALID,917.838,VALID,0,VALID,73.9853,VALID,627.994,VALID,24.1287,VALID,270,VALID,0,
2013-07-17, 11:10:04,VALID,917.826,VALID,0,VALID,73.5736,VALID,707.607,VALID,24.1482,VALID,247,VALID,0,
2013-07-17, 11:11:04,VALID,917.817,VALID,0,VALID,73.5355,VALID,700.839,VALID,24.0896,VALID,253,VALID,0,
2013-07-17, 11:12:04,VALID,917.82,VALID,0,VALID,74.6485,VALID,693.533,VALID,24.0701,VALID,238,VALID,0,
2013-07-17, 11:13:04,VALID,917.824,VALID,0,VALID,74.6714,VALID,664.953,VALID,24.2263,VALID,245,VALID,0,
2013-07-17, 11:14:04,VALID,917.826,VALID,0,VALID,72.9256,VALID,643.573,VALID,24.3239,VALID,239,VALID,0,
2013-07-17, 11:15:04,VALID,917.833,VALID,0,VALID,74.0081,VALID,701.376,VALID,24.3044,VALID,254,VALID,0,
2013-07-17, 11:16:04,VALID,917.797,VALID,0,VALID,72.5139,VALID,724.691,VALID,24.4039,VALID,248,VALID,0,
2013-07-17, 11:17:04,VALID,917.793,VALID,0,VALID,73.6651,VALID,735.112,VALID,24.4216,VALID,287,VALID,0,
2013-07-17, 11:18:04,VALID,917.788,VALID,0,VALID,72.6054,VALID,747.038,VALID,24.5406,VALID,217,VALID,0,
2013-07-17, 11:19:04,VALID,917.76,VALID,0,VALID,74.9915,VALID,778.196,VALID,24.7535,VALID,120,VALID,0,
2013-07-17, 11:20:04,VALID,917.803,VALID,0,VALID,74.2521,VALID,813.544,VALID,25.0464,VALID,121,VALID,0,
2013-07-17, 11:21:04,VALID,917.768,VALID,0,VALID,72.7274,VALID,793.238,VALID,25.3198,VALID,10,VALID,0,
2013-07-17, 11:22:04,VALID,917.791,VALID,0,VALID,70.7377,VALID,726.625,VALID,25.3589,VALID,192,VALID,0,
2013-07-17, 11:23:04,VALID,917.738,VALID,0,VALID,72.0108,VALID,590.926,VALID,25.4565,VALID,357,VALID,0,
2013-07-17, 11:24:04,VALID,917.793,VALID,0,VALID,72.8341,VALID,534.95,VALID,25.437,VALID,29,VALID,0,
2013-07-17, 11:25:04,VALID,917.768,VALID,0,VALID,70.7224,VALID,521.197,VALID,25.4565,VALID,28,VALID,0,
2013-07-17, 11:26:04,VALID,917.736,VALID,0,VALID,70.7224,VALID,521.842,VALID,25.437,VALID,342,VALID,0,
2013-07-17, 11:27:04,VALID,917.723,VALID,0,VALID,70.387,VALID,560.413,VALID,25.398,VALID,298,VALID,0,
2013-07-17, 11:28:04,VALID,917.706,VALID,0,VALID,72.6435,VALID,528.073,VALID,25.4956,VALID,23,VALID,0,
2013-07-17, 11:29:04,VALID,917.624,VALID,0,VALID,71.3552,VALID,531.619,VALID,25.5523,VALID,39,VALID,0,
2013-07-17, 11:30:04,VALID,917.669,VALID,0,VALID,71.8736,VALID,527.536,VALID,25.6519,VALID,323,VALID,0,
2013-07-17, 11:31:04,VALID,917.631,VALID,0,VALID,71.965,VALID,577.389,VALID,25.8081,VALID,38,VALID,0,
2013-07-17, 11:32:04,VALID,917.609,VALID,0,VALID,72.0184,VALID,664.094,VALID,25.9253,VALID,10,VALID,0,
2013-07-17, 11:33:04,VALID,917.618,VALID,0,VALID,69.2511,VALID,684.722,VALID,26.0406,VALID,354,VALID,0,
2013-07-17, 11:34:04,VALID,917.621,VALID,0,VALID,69.6018,VALID,666.78,VALID,26.1988,VALID,2,VALID,0,
2013-07-17, 11:35:04,VALID,917.593,VALID,0,VALID,67.856,VALID,577.819,VALID,26.3531,VALID,282,VALID,0,
2013-07-17, 11:36:04,VALID,917.605,VALID,0,VALID,67.2614,VALID,531.726,VALID,26.3356,VALID,10,VALID,0,
2013-07-17, 11:37:04,VALID,917.584,VALID,0,VALID,68.1228,VALID,439.864,VALID,26.0406,VALID,349,VALID,0,
2013-07-17, 11:38:04,VALID,917.58,VALID,0,VALID,70.1202,VALID,399.251,VALID,25.9429,VALID,26,VALID,0,
2013-07-17, 11:39:04,VALID,917.594,VALID,0,VALID,71.5839,VALID,380.771,VALID,25.9234,VALID,25,VALID,0,
2013-07-17, 11:40:04,VALID,917.584,VALID,0,VALID,69.0834,VALID,373.68,VALID,25.7866,VALID,53,VALID,0,
2013-07-17, 11:41:04,VALID,917.566,VALID,0,VALID,71.0197,VALID,367.556,VALID,25.6694,VALID,16,VALID,0,
2013-07-17, 11:42:04,VALID,917.607,VALID,0,VALID,71.035,VALID,361.754,VALID,25.6109,VALID,20,VALID,0,
2013-07-17, 11:43:04,VALID,917.565,VALID,0,VALID,71.0655,VALID,359.068,VALID,25.5503,VALID,47,VALID,0,
2013-07-17, 11:44:04,VALID,917.551,VALID,0,VALID,72.7121,VALID,353.481,VALID,25.4741,VALID,29,VALID,0,
2013-07-17, 11:45:04,VALID,917.557,VALID,0,VALID,73.1695,VALID,354.878,VALID,25.4937,VALID,23,VALID,0,
2013-07-17, 11:46:04,VALID,917.549,VALID,0,VALID,72.8341,VALID,362.614,VALID,25.4136,VALID,11,VALID,0,
2013-07-17, 11:47:04,VALID,917.515,VALID,0,VALID,74.0081,VALID,380.557,VALID,25.3374,VALID,26,VALID,0,
2013-07-17, 11:48:04,VALID,917.507,VALID,0,VALID,73.5507,VALID,397.747,VALID,25.3374,VALID,41,VALID,0,
2013-07-17, 11:49:04,VALID,917.507,VALID,0,VALID,73.8023,VALID,408.921,VALID,25.357,VALID,301,VALID,0,
2013-07-17, 11:50:04,VALID,917.489,VALID,0,VALID,74.3359,VALID,403.227,VALID,25.4741,INVALID,360,VALID,0,
2013-07-17, 11:51:04,VALID,917.465,VALID,0,VALID,74.1301,VALID,407.202,VALID,25.4351,VALID,36,VALID,0,
2013-07-17, 11:52:04,VALID,917.465,VALID,0,VALID,73.3296,VALID,400.863,VALID,25.2984,VALID,346,VALID,0,
2013-07-17, 11:53:04,VALID,917.422,VALID,0,VALID,75.4185,VALID,392.59,VALID,25.2007,VALID,8,VALID,0,
2013-07-17, 11:54:04,VALID,917.424,VALID,0,VALID,73.5507,VALID,349.399,VALID,25.2417,VALID,327,VALID,0,
2013-07-17, 11:55:04,VALID,917.384,VALID,0,VALID,73.6803,VALID,325.869,VALID,25.2398,VALID,346,VALID,0,
2013-07-17, 11:56:04,VALID,917.364,VALID,0,VALID,73.9471,VALID,286.653,VALID,25.2984,VALID,19,VALID,0,
2013-07-17, 11:57:04,VALID,917.345,VALID,0,VALID,74.2597,VALID,240.776,VALID,25.3179,VALID,308,VALID,0,
2013-07-17, 11:58:04,VALID,917.345,VALID,0,VALID,74.1301,VALID,225.412,VALID,25.2788,VALID,175,VALID,0,
2013-07-17, 11:59:04,VALID,917.298,VALID,0,VALID,74.5494,VALID,232.395,VALID,25.1617,VALID,149,VALID,0,
2013-07-17, 12:00:04,VALID,917.323,VALID,0,VALID,75.9063,VALID,257.859,VALID,25.0445,VALID,3,VALID,0,
2013-07-17, 12:01:04,VALID,917.252,VALID,0,VALID,77.0804,VALID,301.802,VALID,24.9664,VALID,33,VALID,0,
2013-07-17, 12:02:04,VALID,917.245,VALID,0,VALID,77.3091,VALID,343.489,VALID,24.9078,VALID,7,VALID,0,
2013-07-17, 12:03:04,VALID,917.27,VALID,0,VALID,76.2875,VALID,367.341,VALID,24.9469,VALID,318,VALID,0,
2013-07-17, 12:04:04,VALID,917.279,VALID,0,VALID,75.2279,VALID,362.614,VALID,24.8102,VALID,231,VALID,0,
2013-07-17, 12:05:04,VALID,917.297,VALID,0,VALID,77.7817,VALID,364.655,VALID,24.5173,VALID,280,VALID,0,
2013-07-17, 12:06:04,VALID,917.254,VALID,0,VALID,78.5136,VALID,392.053,VALID,24.4002,VALID,23,VALID,0,
2013-07-17, 12:07:04,VALID,917.17,VALID,0,VALID,78.2772,VALID,451.79,VALID,24.3221,VALID,360,VALID,0,
2013-07-17, 12:08:04,VALID,917.255,VALID,0,VALID,79.4131,VALID,523.131,VALID,24.2245,VALID,8,VALID,0,
2013-07-17, 12:09:04,VALID,917.244,VALID,0,VALID,80.0382,VALID,515.932,VALID,24.3026,VALID,345,VALID,0,
2013-07-17, 12:10:04,VALID,917.244,VALID,0,VALID,78.3382,VALID,540.107,VALID,24.3221,VALID,12,VALID,0,
2013-07-17, 12:11:04,VALID,917.229,VALID,0,VALID,79.0091,VALID,513.354,VALID,24.1854,VALID,299,VALID,0,
2013-07-17, 12:12:04,VALID,917.19,VALID,0,VALID,79.3979,VALID,469.088,VALID,24.2635,VALID,33,VALID,0,
2013-07-17, 12:13:04,VALID,917.183,VALID,0,VALID,77.5149,VALID,467.262,VALID,24.4606,VALID,337,VALID,0,
2013-07-17, 12:14:04,VALID,917.199,VALID,0,VALID,77.1871,VALID,522.701,VALID,24.5564,VALID,299,VALID,0,
2013-07-17, 12:15:04,VALID,917.183,VALID,0,VALID,76.5696,VALID,511.85,VALID,24.4783,VALID,310,VALID,0,
2013-07-17, 12:16:04,VALID,917.187,VALID,0,VALID,76.2342,VALID,481.659,VALID,24.4587,VALID,316,VALID,0,
2013-07-17, 12:17:04,VALID,917.146,VALID,0,VALID,77.0575,VALID,475.212,VALID,24.5759,VALID,16,VALID,0,
2013-07-17, 12:18:04,VALID,917.182,VALID,0,VALID,76.1808,VALID,406.02,VALID,24.7516,VALID,29,VALID,0,
2013-07-17, 12:19:04,VALID,917.207,VALID,0,VALID,76.0512,VALID,384.962,VALID,24.9078,VALID,35,VALID,0,
2013-07-17, 12:20:04,VALID,917.223,VALID,0,VALID,77.5683,VALID,377.118,VALID,25.0055,VALID,16,VALID,0,
2013-07-17, 12:21:04,VALID,917.198,VALID,0,VALID,77.3091,VALID,326.191,VALID,25.025,VALID,19,VALID,0,
2013-07-17, 12:22:04,VALID,917.216,VALID,0,VALID,76.2189,VALID,265.057,VALID,25.0055,VALID,52,VALID,0,
2013-07-17, 12:23:04,VALID,917.236,VALID,0,VALID,76.1732,VALID,236.585,VALID,25.0445,VALID,14,VALID,0,
2013-07-17, 12:24:04,VALID,917.228,VALID,0,VALID,77.8275,VALID,220.254,VALID,24.9664,VALID,23,VALID,0,
2013-07-17, 12:25:04,VALID,917.23,VALID,0,VALID,76.9355,VALID,212.948,VALID,25.025,VALID,17,VALID,0,
2013-07-17, 12:26:04,VALID,917.208,VALID,0,VALID,74.4503,VALID,209.295,VALID,25.0074,VALID,16,VALID,0,
2013-07-17, 12:27:04,VALID,917.182,VALID,0,VALID,76.2723,VALID,201.989,VALID,24.7126,VALID,29,VALID,0,
2013-07-17, 12:28:04,VALID,917.16,VALID,0,VALID,78.4678,VALID,190.815,VALID,24.4411,VALID,34,VALID,0,